Regional Weather Roundup
Issued by NWS Upton, NY

Current Version | Previous Version | Graphics & Text | Print | Product List | Glossary Off
Versions: 1 2 3 4 5 6 7 8 9 10 11 12 13 14 15 16 17 18 19 20 21 22 23 24 25 26 27 28 29 30 31 32 33 34 35 36 37 38 39 40 41 42 43 44 45 46 47 48 49 50

000
ASUS41 KOKX 281205
RWROKX

REGIONAL WEATHER ROUNDUP
NATIONAL WEATHER SERVICE NEW YORK NY
800 AM EDT SAT MAY 28 2016

NOTE: "FAIR" INDICATES FEW OR NO CLOUDS BELOW 12,000 FEET WITH NO
SIGNIFICANT WEATHER AND/OR OBSTRUCTIONS TO VISIBILITY.

NYZ071-072-176-178-NJZ106-104-281300-
NEW YORK CITY METRO AREA


CITY           SKY/WX    TMP DP  RH WIND       PRES   REMARKS
CENTRAL PARK   SUNNY     73  59  61 MISG      30.14S
LAGUARDIA APRT PTSUNNY   76  64  66 SW7       30.11S
KENNEDY INTL   PTSUNNY   70  60  70 SW6       30.13S
NEWARK/LIBERTY PTSUNNY   76  61  59 SW13      30.12S
BRNX BOT. GARD   N/A     75  59  57 SW9       30.14R
TETERBORO      SUNNY     75  60  59 S7        30.10S
$$

NYZ177-179-078>081-281300-
LONG ISLAND NEW YORK

CITY           SKY/WX    TMP DP  RH WIND       PRES   REMARKS
FARMINGDALE    SUNNY     70  59  68 SW8       30.13S
ISLIP          MOSUNNY   70  59  68 SW12      30.13R
SHIRLEY        SUNNY     70  60  70 SW9G18    30.13S
RIVERHEAD        N/A     72  63  73 W6        30.11S
WESTHAMPTON    SUNNY     67  59  75 SW10      30.14S
EAST HAMPTON   FAIR      66  59  77 SW8       30.13R
MONTAUK POINT    N/A     66  59  78 SW10G18   30.14R
$$

NYZ052-065-067-281300-
HUDSON VALLEY

CITY           SKY/WX    TMP DP  RH WIND       PRES   REMARKS
WHITE PLAINS   SUNNY     74  64  71 W7        30.11F
NEWBURGH       MOSUNNY   73  70  88 W9        30.12S
MONTGOMERY     SUNNY     74  70  87 SW8       30.10S
POUGHKEEPSIE   MOSUNNY   76  68  76 SW6       30.09R
ALBANY         MOSUNNY   75  67  76 CALM      30.09S
$$

NJZ001-105-106-008-010-013-015-019>022-104-281300-
NEW JERSEY

CITY           SKY/WX    TMP DP  RH WIND       PRES   REMARKS
NEWARK/LIBERTY PTSUNNY   76  61  59 SW13      30.12S
TETERBORO      SUNNY     75  60  59 S7        30.10S
CALDWELL       SUNNY     74  63  68 W5        30.12S
MORRISTOWN     MOSUNNY   75  64  69 SW9       30.12S
SOMERVILLE     SUNNY     73  63  70 S7        30.11S
SUSSEX         SUNNY     73  67  81 SW8       30.12S
ANDOVER          N/A     73  66  78 VRB5      30.13S
TRENTON        SUNNY     72  62  71 SW6       30.13F
MILLVILLE      MOSUNNY   72  63  73 VRB5      30.16S
ATLANTIC CITY  SUNNY     71  63  75 SW8       30.15F
WRIGHTSTOWN    NOT AVBL
TOMS RIVER     SUNNY     73  59  60 SW9       30.15S
BELMAR         SUNNY     72  62  71 SW9       30.15S
$$

PAZ047>061-062-071-281300-
EASTERN PENNSYLVANIA

CITY           SKY/WX    TMP DP  RH WIND       PRES   REMARKS
PHILADELPHIA   PTSUNNY   73  61  65 SW9       30.15S
ALLENTOWN      MOSUNNY   74  65  73 SW3       30.13S
SCRANTON       SUNNY     74  66  76 VRB3      30.14R
$$

CTZ002-004>006-009-010-012-RIZ004-006-007-MAZ004-011-015-281300-
SOUTHERN NEW ENGLAND
 IN CT

CITY           SKY/WX    TMP DP  RH WIND       PRES   REMARKS
BRADLEY INTL   CLOUDY    70  62  76 S3        30.09S
HARTFORD       MOSUNNY   74  64  71 S7        30.10S
DANBURY        SUNNY     72  65  78 W7        30.12S
WTRBRY/OXFORD  NOT AVBL
BRIDGEPORT     SUNNY     71  59  65 SW7       30.11S
MERIDEN        MOSUNNY   70  61  73 SE3       30.11R
NEW HAVEN      SUNNY     68  59  73 S7        30.11S
CHESTER        FAIR      70  59  68 VRB5      30.12S
GROTON         MOSUNNY   68  61  78 W12       30.11R
WILLIMANTIC    SUNNY     71  60  68 CALM      30.11S

 IN RI

CITY           SKY/WX    TMP DP  RH WIND       PRES   REMARKS
PROVIDENCE     PTSUNNY   73  60  63 SW8       30.11R
BLOCK ISLAND   NOT AVBL
WESTERLY       MOSUNNY   68  57  68 SW6       30.12S

 IN MA

CITY           SKY/WX    TMP DP  RH WIND       PRES   REMARKS
BOSTON         MOSUNNY   73  63  70 SW5       30.07R
WORCESTER      CLOUDY    69  63  81 W12       30.12R
WESTFIELD      LGT RAIN  66  61  84 CALM      30.10R
PROVINCETOWN   SUNNY     65  58  78 SW13      30.09R
NANTUCKET      MOSUNNY   62  58  86 SW10      30.14R
$$

ANZ330-335-338-340-345-350-353-355-281300-
COASTAL MARINE OBSERVATIONS


STATION/POSITION TIME  SKY/WX   TEMP    WIND        PRES    VSBY  WAVE
                                AIR SEA DIR/SP/G                  HT/PER
                 (UTC)          (F)     (DEG/KT/KT) (MB)    (MI)  (FT/S)
NY HARB ENTRANCE 1050            60 58  200/ 10/ 12 1020.0          2/ 5
20S FIRE ISLAND  1050            61 58  210/ 14/ 16 1020.4          3/ 6
GREAT SOUTH BAY  1100            65 68  230/ 14/ 17   N/A
23 SSW MONTAUK P 1150            60 56  230/ 16/ 17 1020.1          4/ 6
15 E BARNEGAT LI 1122               59                N/A           3/ 5
HUDSON CANYON    1050            60 57              1021.9          3/ 5
KINGS POINT      1100            69 59              1019.5
EXECUTION ROCKS  NOT AVBL
CENTRAL LI SOUND 1100            63     220/  8/ 10   N/A           1/ 3
EASTERN LI SOUND 1100            59 53  230/  4/  6   N/A
ROBBINS REEF     1100            71     240/  9/ 10 1019.3
$$


>>>>>>>>>>>>>>>>>>>>>>>>>>>> KEY <<<<<<<<<<<<<<<<<<<<<<<<<<<
>                                                          <
>     SKY/WX - SKY CONDITION/PRESENT WEATHER               <
>     TMP    - TEMPERATURE IN FAHRENHEIT                   <
>     DP     - DEWPOINT IN FAHRENHEIT                      <
>     RH     - RELATIVE HUMIDITY IN PERCENT                <
>     WIND   - DIRECTION AND SPEED IN MPH                  <
>     PRES   - MEAN SEA LEVEL PRESSURE IN INCHES OF HG     <
>     WCI    - WIND CHILL INDEX                            <
>     VSB    - VISIBILITY IN MILES                         <
>     HX     - HEAT INDEX                                  <
>     TC     - TEMPERATURE IN CELSIUS                      <
>     VRB    - VARIABLE WIND DIRECTION                     <
>                                                          <
>>>>>>>>>>>>>>>>>>>>>>>>>>>> KEY <<<<<<<<<<<<<<<<<<<<<<<<<<<





USA.gov is the U.S. government's official web portal to all federal, state and local government web resources and services.